EW8865 Weather Reports


time (UTC)temp
C
wind
direction
speed
KPH
gust
KPH
rain 1hr
cm
rain 24hr
cm
rain mn
cm
humidity
%
barometer
mb
20260901203504 15 197 0.0 3.2 0.00 0.00 0.00 85 1019.5
20260901203003 15 197 1.6 4.8 0.00 0.00 0.00 84 1019.5
20260901202503 15 197 3.2 4.8 0.00 0.00 0.00 84 1019.5
20260901202003 15 197 1.6 4.8 0.00 0.00 0.00 84 1019.4
20260901201503 15 197 3.2 4.8 0.00 0.00 0.00 83 1019.5
20260901201004 15 196 3.2 4.8 0.00 0.00 0.00 83 1019.5
20260901200004 16 272 0.0 4.8 0.00 0.00 0.00 82 1019.3
20260901195504 16 272 1.6 3.2 0.00 0.00 0.00 82 1019.4
20260901195004 16 272 0.0 0.0 0.00 0.00 0.00 82 1019.4
20260901194504 16 272 1.6 3.2 0.00 0.00 0.00 82 1019.4
20260901194004 16 273 1.6 4.8 0.00 0.00 0.00 81 1019.4
20260901193504 16 272 4.8 9.7 0.00 0.00 0.00 81 1019.4
20260901193004 16 265 3.2 4.8 0.00 0.00 0.00 80 1019.5
20260901192504 16 264 3.2 11.3 0.00 0.00 0.00 80 1019.3
20260901192004 16 280 6.4 11.3 0.00 0.00 0.00 80 1019.4
20260901191504 16 281 6.4 12.9 0.00 0.00 0.00 79 1019.4
20260901191004 16 279 8.0 14.5 0.00 0.00 0.00 78 1019.4
20260901190504 16 275 3.2 4.8 0.00 0.00 0.00 78 1019.3
20260901190003 16 281 3.2 4.8 0.00 0.00 0.00 78 1019.3
20260901185003 16 262 4.8 9.7 0.00 0.00 0.00 78 1019.3
20260901184504 16 265 4.8 9.7 0.00 0.00 0.00 79 1019.2
20260901184004 17 261 6.4 14.5 0.00 0.00 0.00 79 1019.2
20260901183503 17 253 8.0 14.5 0.00 0.00 0.00 79 1019.2
20260901183004 17 270 12.9 19.3 0.00 0.00 0.00 78 1019.2
20260901182503 17 234 9.7 19.3 0.00 0.00 0.00 77 1019.2
20260901182004 17 263 9.7 12.9 0.00 0.00 0.00 78 1019.2
20260901181503 17 260 6.4 14.5 0.00 0.00 0.00 77 1019.1
20260901181004 17 252 9.7 14.5 0.00 0.00 0.00 77 1019.2
20260901180003 17 268 9.7 19.3 0.00 0.00 0.00 76 1019.1
20260901175503 17 249 9.7 16.1 0.00 0.00 0.00 76 1019.2
20260901175004 17 267 9.7 12.9 0.00 0.00 0.00 75 1019.1
20260901174504 17 253 9.7 16.1 0.00 0.00 0.00 75 1019.1
20260901173503 18 234 11.3 20.9 0.00 0.00 0.00 73 1019.2
20260901172504 18 269 11.3 19.3 0.00 0.00 0.00 72 1019.4
20260901172004 18 265 11.3 20.9 0.00 0.00 0.00 72 1019.5
20260901171503 18 266 9.7 19.3 0.00 0.00 0.00 72 1019.5
20260901171004 18 259 12.9 19.3 0.00 0.00 0.00 71 1019.4
20260901170003 18 248 16.1 24.1 0.00 0.00 0.00 69 1019.4
20260901165504 18 273 14.5 20.9 0.00 0.00 0.00 68 1019.5
20260901164504 19 266 11.3 27.4 0.00 0.00 0.00 64 1019.3
20260901164004 19 266 14.5 25.7 0.00 0.00 0.00 64 1019.4
20260901163503 19 246 9.7 22.5 0.00 0.00 0.00 66 1019.3
20260901163004 19 282 14.5 27.4 0.00 0.00 0.00 66 1019.4
20260901162503 19 271 16.1 27.4 0.00 0.00 0.00 66 1019.3
20260901162003 19 273 16.1 22.5 0.00 0.00 0.00 66 1019.3
20260901161503 19 278 16.1 25.7 0.00 0.00 0.00 67 1019.3
20260901161004 19 282 16.1 25.7 0.00 0.00 0.00 68 1019.3
20260901160504 19 266 16.1 27.4 0.00 0.00 0.00 69 1019.5
20260901160004 19 280 16.1 25.7 0.00 0.00 0.00 67 1019.5
20260901154503 19 280 20.9 27.4 0.00 0.00 0.00 66 1019.4
20260901153504 20 292 16.1 27.4 0.00 0.00 0.00 64 1019.4
20260901152504 20 238 16.1 25.7 0.00 0.00 0.00 62 1019.5
20260901152003 21 254 11.3 27.4 0.00 0.00 0.00 62 1019.5
20260901151503 21 233 14.5 29.0 0.00 0.00 0.00 61 1019.4
20260901151003 21 277 17.7 32.2 0.00 0.00 0.00 61 1019.4
20260901150504 21 268 17.7 25.7 0.00 0.00 0.00 61 1019.5
20260901144504 21 250 14.5 22.5 0.00 0.00 0.00 64 1019.4
20260901144004 20 244 11.3 20.9 0.00 0.00 0.00 65 1019.4
20260901143504 20 269 16.1 25.7 0.00 0.00 0.00 65 1019.5
20260901143003 20 265 16.1 27.4 0.00 0.00 0.00 66 1019.5
20260901142503 20 285 16.1 25.7 0.00 0.00 0.00 66 1019.5
20260901142003 20 284 17.7 27.4 0.00 0.00 0.00 66 1019.5
20260901141504 20 271 19.3 25.7 0.00 0.00 0.00 69 1019.5
20260901141003 20 283 16.1 22.5 0.00 0.00 0.00 68 1019.5
20260901140004 20 248 14.5 22.5 0.00 0.00 0.00 67 1019.6
20260901135504 20 240 16.1 22.5 0.00 0.00 0.00 66 1019.6
20260901135004 20 247 16.1 29.0 0.00 0.00 0.00 66 1019.7
20260901134504 20 285 16.1 20.9 0.00 0.00 0.00 66 1019.7
20260901134004 20 285 14.5 22.5 0.00 0.00 0.00 65 1019.6
20260901133504 20 272 20.9 27.4 0.00 0.00 0.00 65 1019.7
20260901133003 20 261 14.5 20.9 0.00 0.00 0.00 66 1019.7
20260901132004 20 230 11.3 22.5 0.00 0.00 0.00 65 1019.6
20260901131004 20 237 14.5 27.4 0.00 0.00 0.00 66 1019.6
20260901130504 20 259 16.1 27.4 0.00 0.00 0.00 65 1019.7
20260901125504 20 271 14.5 25.7 0.00 0.00 0.00 66 1019.7
20260901124504 20 283 12.9 22.5 0.00 0.00 0.00 69 1019.8
20260901124004 20 226 12.9 20.9 0.00 0.00 0.00 68 1019.9
20260901123004 20 274 9.7 22.5 0.00 0.00 0.00 68 1019.8
20260901122504 20 233 14.5 25.7 0.00 0.00 0.00 67 1019.8
20260901122004 20 239 9.7 20.9 0.00 0.00 0.00 70 1019.8
20260901121004 18 281 14.5 20.9 0.00 0.00 0.00 74 1019.9
20260901120504 18 241 14.5 20.9 0.00 0.00 0.00 74 1019.9
20260901115504 18 284 16.1 32.2 0.00 0.00 0.00 72 1019.8
20260901115004 19 252 17.7 32.2 0.00 0.00 0.00 69 1019.8
20260901114504 20 232 14.5 29.0 0.00 0.00 0.00 69 1019.7
20260901114004 21 189 12.9 19.3 0.00 0.00 0.00 67 1019.7
20260901113504 21 183 9.7 20.9 0.00 0.00 0.00 71 1019.7
20260901112004 20 221 16.1 22.5 0.00 0.00 0.00 70 1019.9
20260901111504 20 203 12.9 22.5 0.00 0.00 0.00 71 1019.9
20260901111004 19 221 11.3 19.3 0.00 0.00 0.00 72 1019.9
20260901110004 18 245 9.7 16.1 0.00 0.00 0.00 70 1019.8
20260901105504 18 256 11.3 19.3 0.00 0.00 0.00 69 1019.8
20260901105004 18 259 14.5 20.9 0.00 0.00 0.00 68 1019.8
20260901104504 19 265 12.9 24.1 0.00 0.00 0.00 69 1020.0
20260901104004 19 246 12.9 24.1 0.00 0.00 0.00 69 1019.9
20260901103003 19 236 11.3 20.9 0.00 0.00 0.00 70 1019.9
20260901102504 19 285 9.7 16.1 0.00 0.00 0.00 71 1019.9
20260901102004 18 231 12.9 22.5 0.00 0.00 0.00 72 1020.0
20260901101504 18 253 9.7 16.1 0.00 0.00 0.00 75 1020.0
20260901100008 18 255 8.0 12.9 0.00 0.00 0.00 77 1020.2
20260901095505 18 224 6.4 11.3 0.00 0.00 0.00 76 1020.1
20260901094504 18 198 11.3 19.3 0.00 0.00 0.00 75 1020.1
20260901094003 18 224 8.0 19.3 0.00 0.00 0.00 74 1020.1
20260901093504 18 203 11.3 22.5 0.00 0.00 0.00 73 1020.0
20260901093004 18 204 11.3 19.3 0.00 0.00 0.00 72 1019.9
20260901092504 18 222 9.7 19.3 0.00 0.00 0.00 74 1019.9
20260901092004 18 207 8.0 14.5 0.00 0.00 0.00 75 1020.0
20260901091504 18 186 6.4 16.1 0.00 0.00 0.00 74 1019.9
20260901091003 18 201 9.7 12.9 0.00 0.00 0.00 73 1020.0
20260901090504 18 241 8.0 12.9 0.00 0.00 0.00 74 1020.0
20260901090004 18 196 3.2 8.0 0.00 0.00 0.00 76 1019.9
20260901085503 17 211 1.6 4.8 0.00 0.00 0.00 77 1020.0
20260901085004 17 217 1.6 4.8 0.00 0.00 0.00 78 1020.0
20260901084504 17 218 0.0 4.8 0.00 0.00 0.00 78 1020.0
20260901084003 17 217 1.6 4.8 0.00 0.00 0.00 78 1020.0
20260901083504 17 217 4.8 8.0 0.00 0.00 0.00 77 1020.0
20260901083004 17 232 3.2 4.8 0.00 0.00 0.00 77 1020.1
20260901082503 17 218 3.2 4.8 0.00 0.00 0.00 77 1020.1
20260901082003 17 221 0.0 3.2 0.00 0.00 0.00 77 1020.1
20260901081504 17 214 0.0 0.0 0.00 0.00 0.00 77 1020.0
20260901080004 16 207 0.0 0.0 0.00 0.00 0.00 80 1020.0
20260901075504 16 208 0.0 0.0 0.00 0.00 0.00 82 1020.0
20260901075004 15 210 0.0 0.0 0.00 0.00 0.00 83 1020.0
20260901074504 15 211 0.0 0.0 0.00 0.00 0.00 83 1020.0
20260901074003 15 211 0.0 0.0 0.00 0.00 0.00 85 1020.0
20260901073503 14 212 0.0 0.0 0.00 0.00 0.00 85 1020.0
20260901072003 13 213 0.0 0.0 0.00 0.00 0.00 89 1020.0
20260901071503 12 217 0.0 0.0 0.00 0.00 0.00 90 1020.0
20260901071003 12 218 0.0 0.0 0.00 0.00 0.00 90 1020.0
20260901070004 12 219 0.0 0.0 0.00 0.00 0.00 90 1019.9
20260901065503 12 219 0.0 0.0 0.00 0.00 0.00 89 1019.9
20260901065004 12 219 0.0 0.0 0.00 0.00 0.00 89 1019.9
20260901064504 12 219 0.0 0.0 0.00 0.00 0.00 90 1019.9
20260901064004 12 219 0.0 0.0 0.00 0.00 0.00 90 1019.8
20260901063504 12 219 0.0 0.0 0.00 0.00 0.00 90 1019.8
20260901063003 12 219 0.0 0.0 0.00 0.00 0.00 90 1019.8
20260901062503 12 218 0.0 0.0 0.00 0.00 0.00 90 1019.7
20260901062004 11 219 0.0 0.0 0.00 0.00 0.00 90 1019.7
20260901061503 11 219 0.0 0.0 0.00 0.00 0.00 90 1019.7
20260901061003 11 219 0.0 0.0 0.00 0.03 0.00 90 1019.6
20260901060503 11 219 0.0 0.0 0.00 0.03 0.00 90 1019.6
20260901055504 11 219 0.0 0.0 0.00 0.03 0.00 90 1019.6
20260901054503 11 220 0.0 0.0 0.00 0.03 0.00 90 1019.5
20260901053504 11 220 0.0 0.0 0.00 0.03 0.00 90 1019.3
20260901053003 11 220 0.0 0.0 0.00 0.03 0.00 90 1019.3
20260901052503 11 220 0.0 0.0 0.00 0.03 0.00 90 1019.3
20260901051503 11 220 0.0 0.0 0.00 0.03 0.00 90 1019.4
20260901050503 11 220 0.0 0.0 0.00 0.03 0.00 90 1019.2
20260901050004 11 220 0.0 0.0 0.00 0.03 0.00 90 1019.2
20260901045503 11 220 0.0 0.0 0.00 0.03 0.00 90 1019.2
20260901045004 11 220 1.6 3.2 0.00 0.03 0.00 90 1019.1
20260901044506 11 220 0.0 3.2 0.00 0.03 0.00 90 1019.1
20260901044004 11 220 1.6 3.2 0.00 0.03 0.00 90 1019.1
20260901043504 11 220 3.2 3.2 0.00 0.03 0.00 90 1019.0
20260901043003 11 220 1.6 3.2 0.00 0.03 0.00 90 1019.0
20260901042504 11 220 3.2 4.8 0.00 0.03 0.00 90 1019.0
20260901041504 11 221 0.0 3.2 0.00 0.03 0.00 90 1019.0
20260901040503 11 221 1.6 3.2 0.00 0.03 0.00 90 1018.9
20260901040004 11 221 1.6 4.8 0.00 0.03 0.00 90 1018.9
20260901035503 11 223 3.2 4.8 0.00 0.03 0.00 90 1019.0
20260901034503 11 219 8.0 12.9 0.00 0.03 0.00 91 1019.1
20260901034003 11 246 1.6 4.8 0.00 0.03 0.00 91 1019.0
20260901033504 11 246 1.6 4.8 0.00 0.03 0.00 91 1019.1
20260901033003 11 246 1.6 3.2 0.00 0.03 0.00 91 1019.0
20260901032504 11 246 0.0 3.2 0.00 0.03 0.00 91 1019.0
20260901032003 11 246 3.2 4.8 0.00 0.03 0.00 91 1019.0
20260901031504 11 248 0.0 4.8 0.00 0.03 0.00 90 1019.0
20260901031004 11 249 0.0 0.0 0.00 0.03 0.00 90 1018.9
20260901030503 11 249 0.0 0.0 0.00 0.03 0.00 90 1018.9
20260901030004 11 248 0.0 0.0 0.00 0.03 0.00 91 1018.9
20260901025503 11 248 0.0 0.0 0.00 0.03 0.00 90 1018.9
20260901025003 11 248 0.0 0.0 0.00 0.03 0.00 90 1018.9
20260901024504 11 248 0.0 0.0 0.00 0.03 0.00 90 1018.9
20260901024004 11 248 0.0 0.0 0.00 0.03 0.00 90 1019.0
20260901023503 11 248 0.0 0.0 0.00 0.03 0.00 90 1019.0
20260901023004 11 248 0.0 0.0 0.00 0.03 0.00 89 1019.0
20260901022503 11 248 0.0 0.0 0.00 0.03 0.00 89 1019.1
20260901022003 11 248 0.0 0.0 0.00 0.03 0.00 89 1019.1
20260901021503 11 248 0.0 0.0 0.00 0.03 0.00 90 1019.1
20260901020003 11 248 0.0 0.0 0.00 0.03 0.00 90 1019.2
20260901015503 11 248 0.0 0.0 0.00 0.03 0.00 90 1019.3
20260901015004 11 248 0.0 0.0 0.00 0.03 0.00 90 1019.2
20260901014503 11 249 0.0 0.0 0.00 0.03 0.00 89 1019.2
20260901014004 11 249 0.0 0.0 0.00 0.03 0.00 89 1019.2
20260901013503 11 249 0.0 0.0 0.00 0.03 0.00 88 1019.3
20260901012504 11 249 0.0 0.0 0.00 0.03 0.00 88 1019.3
20260901012004 11 249 0.0 0.0 0.00 0.03 0.00 87 1019.2
20260901011503 11 249 0.0 0.0 0.00 0.03 0.00 87 1019.2
20260901011004 11 249 0.0 0.0 0.00 0.03 0.00 87 1019.2
20260901010504 11 249 0.0 3.2 0.00 0.03 0.00 87 1019.2
20260901010003 11 249 0.0 0.0 0.00 0.03 0.00 87 1019.2
20260901005504 11 249 0.0 4.8 0.00 0.03 0.00 86 1019.1
20260901005004 11 249 1.6 3.2 0.00 0.03 0.00 86 1019.1
20260901004503 11 249 1.6 1.6 0.00 0.03 0.00 85 1019.1
20260901004004 11 249 0.0 3.2 0.00 0.03 0.00 85 1019.2
20260901003504 11 249 3.2 4.8 0.00 0.03 0.00 85 1019.1
20260901002503 12 248 1.6 3.2 0.00 0.03 0.00 86 1019.1
20260901001504 12 248 4.8 4.8 0.00 0.03 0.00 85 1019.0
20260901000004 12 258 1.6 4.8 0.00 0.05 0.00 84 1019.0
20260831235504 12 258 3.2 4.8 0.00 0.05 0.00 83 1019.0
20260831235004 12 262 1.6 3.2 0.00 0.05 0.00 83 1019.0
20260831234503 12 262 1.6 4.8 0.00 0.05 0.00 82 1019.1
20260831234004 12 262 3.2 9.7 0.00 0.08 0.00 82 1019.1
20260831233504 13 253 4.8 8.0 0.00 0.08 0.00 82 1019.1
20260831233003 13 243 4.8 8.0 0.00 0.10 0.00 81 1019.1
20260831232504 13 253 4.8 8.0 0.00 0.18 0.00 81 1019.1
20260831232004 13 264 8.0 11.3 0.00 0.18 0.00 81 1019.1
20260831231503 13 268 6.4 12.9 0.00 0.18 0.00 81 1019.1
20260831231006 13 263 8.0 14.5 0.00 0.20 0.00 80 1019.1
20260831230505 13 269 6.4 14.5 0.00 0.30 0.00 80 1019.0
20260831230004 13 268 8.0 11.3 0.00 0.56 0.00 80 1019.0
20260831225503 13 276 8.0 14.5 0.00 0.61 0.56 80 1019.0
20260831224504 13 289 11.3 14.5 0.00 0.61 0.56 79 1018.9
20260831224003 13 284 8.0 12.9 0.00 0.61 0.56 79 1018.9
20260831223503 13 284 9.7 16.1 0.00 0.61 0.56 79 1018.8
20260831223003 13 277 9.7 14.5 0.00 0.61 0.56 79 1018.9
20260831222504 13 261 9.7 14.5 0.00 0.61 0.56 79 1018.9
20260831222004 14 279 8.0 12.9 0.00 0.61 0.56 79 1018.9
20260831221003 14 255 6.4 11.3 0.00 0.61 0.56 79 1018.9
20260831220503 14 259 4.8 11.3 0.00 0.61 0.56 78 1018.9
20260831215503 13 291 6.4 14.5 0.00 0.61 0.56 79 1018.8
20260831214503 13 278 6.4 11.3 0.00 0.61 0.56 80 1018.7
20260831214003 13 278 9.7 14.5 0.00 0.61 0.56 80 1018.7
20260831213504 13 276 8.0 19.3 0.00 0.61 0.56 80 1018.7
20260831213004 13 283 8.0 12.9 0.00 0.61 0.56 81 1018.7
20260831212504 13 259 6.4 9.7 0.00 0.61 0.56 81 1018.7
20260831212004 13 257 4.8 9.7 0.00 0.61 0.56 80 1018.7
20260831211504 13 259 4.8 12.9 0.00 0.61 0.56 80 1018.7
20260831211003 13 252 6.4 9.7 0.00 0.61 0.56 80 1018.7
20260831210503 13 234 6.4 9.7 0.00 0.64 0.56 80 1018.7
20260831210004 13 234 4.8 11.3 0.00 0.64 0.56 80 1018.7
20260831205003 13 254 6.4 9.7 0.00 0.64 0.56 79 1018.5
20260831204504 13 246 4.8 8.0 0.00 0.64 0.56 79 1018.5
20260831204003 13 232 6.4 9.7 0.00 0.66 0.56 79 1018.5